Alliance, NE

3:20 AM MDT on April 25, 2018 (GMT -0600)
Alliance Municipal

Weather History for KAIA - January, 2014

Change the Weather History Date:

Saturday, January 18, 2014

  Actual Average Record
Temperature  
Mean Temperature - 24 °F  
Max Temperature - 38 °F 63 °F (1904)
Min Temperature - 11 °F -20 °F (1984)
Degree Days  
Heating Degree Days 41  
Month to date heating degree days 741  
Since 1 July heating degree days 3089 3823  
Cooling Degree Days 0  
Month to date cooling degree days 0  
Year to date cooling degree days 0  
Moisture  
Dew Point -    
Average Humidity    
Maximum Humidity    
Minimum Humidity    
Precipitation  
Precipitation 0.00 in 0.01 in 0.23 in (1963)
Month to date precipitation 0.02 0.10  
Year to date precipitation 0.02 0.10  
Sea Level Pressure  
Sea Level Pressure 30.03 in    
Wind  
Wind Speed 18 mph (WNW)    
Max Wind Speed 28 mph    
Max Gust Speed 45 mph    
Visibility 10 miles    
Events      
T = Trace of Precipitation, MM = Missing Value Source: NWS Daily Summary

Daily Weather History Graph

Daily Weather History Graph

Search for Another Location

Airport or City:

Astronomy

Jan. 18, 2014 Rise Set
Actual Time 7:15 AM MST 4:48 PM MST
Civil Twilight 6:44 AM MST 5:19 PM MST
Nautical Twilight 6:10 AM MST 5:53 PM MST
Astronomical Twilight 5:36 AM MST 6:26 PM MST
Moon 7:36 PM MST (1/18) 8:13 AM MST (1/18)
Length of Visible Light 10h 34m
Length of Day
9h 33m
Waning Gibbous, 94% of the Moon is Illuminated
Jan 18
Waning Gibbous
Jan 23
Last Quarter
Jan 30
New
Feb 6
First Quarter
Feb 14
Full

Hourly Weather History & Observations

Time (MST) Temp. Dew Point Humidity Pressure Visibility Wind Dir Wind Speed Gust Speed Precip Events Conditions
12:53 AM - - N/A% 29.92 in 10.0 mi WNW 20.7 mph - N/A   Clear
1:53 AM - - N/A% 29.93 in 10.0 mi NW 25.3 mph 35.7 mph N/A   Clear
2:53 AM - - N/A% 29.96 in 10.0 mi WNW 17.3 mph 26.5 mph N/A   Clear
3:53 AM - - N/A% 29.96 in 10.0 mi WNW 15.0 mph - N/A   Clear
4:53 AM - - N/A% 29.98 in 10.0 mi WNW 17.3 mph 26.5 mph N/A   Clear
5:53 AM - - N/A% 29.97 in 10.0 mi NW 23.0 mph 36.8 mph N/A   Clear
6:53 AM - - N/A% 29.99 in 10.0 mi NW 27.6 mph 44.9 mph N/A   Clear
7:53 AM - - N/A% 30.03 in 10.0 mi NW 23.0 mph 28.8 mph N/A   Clear
8:53 AM - - N/A% 30.07 in 10.0 mi NW 24.2 mph 33.4 mph N/A   Clear
9:53 AM - - N/A% 30.11 in 10.0 mi NNW 26.5 mph 34.5 mph N/A   Clear
10:53 AM - - N/A% 30.11 in 10.0 mi NNW 27.6 mph 35.7 mph N/A   Clear
11:53 AM - - N/A% 30.11 in 10.0 mi NW 21.9 mph 35.7 mph N/A   Clear
12:53 PM - - N/A% 30.08 in 10.0 mi NW 26.5 mph 33.4 mph N/A   Clear
1:53 PM - - N/A% 30.07 in 10.0 mi NW 24.2 mph 29.9 mph N/A   Clear
2:53 PM - - N/A% 30.08 in 10.0 mi NNW 24.2 mph 35.7 mph N/A   Clear
3:53 PM - - N/A% 30.10 in 10.0 mi NNW 15.0 mph 24.2 mph N/A   Clear
4:53 PM - - N/A% 30.10 in 10.0 mi West 10.4 mph - N/A   Clear
5:53 PM - - N/A% 30.09 in 10.0 mi WSW 9.2 mph - N/A   Clear
6:53 PM - - N/A% 30.08 in 10.0 mi WSW 4.6 mph - N/A   Clear
7:53 PM - - N/A% 30.06 in 10.0 mi WSW 4.6 mph - N/A   Clear
8:53 PM - - N/A% 30.04 in 10.0 mi WSW 6.9 mph - N/A   Clear
9:53 PM - - N/A% 30.01 in 10.0 mi SW 6.9 mph - N/A   Clear
10:53 PM - - N/A% 30.00 in 10.0 mi WSW 4.6 mph - N/A   Clear
11:53 PM - - N/A% 29.99 in 10.0 mi West 6.9 mph - N/A   Clear